Temperature
20 20 20 20 23 24 23 23 23 23 23 22 21 22 22 22 22 20 17 17 17 17 17 17 17 17 17 17 17 17 17 17 17 17 17 17 17 17 17 17 17 17 17 17 17 17 17 17 18
20 20 20 22 24 24 23 23 22 22 22 21 21 21 22 20 18 18 17 17 17 17 16 16 17 17 17 17 17 17 17 17 17 17 17 17 17 17 17 17 17 17 17 17 17 17 17 17 17
21 21 22 24 24 24 23 23 22 22 21 21 21 20 20 19 18 17 17 17 16 16 16 16 17 17 17 17 17 17 17 17 17 17 17 17 17 17 17 17 17 17 17 17 17 17 17 17 17
20 21 23 24 23 23 23 22 22 22 21 21 21 21 19 17 17 17 16 16 16 16 16 16 17 17 17 17 17 17 17 17 17 17 17 17 17 17 17 17 17 17 17 17 17 17 17 17 17
20 23 24 23 23 22 23 22 22 22 22 21 21 21 19 17 17 17 16 16 16 16 16 16 17 17 17 17 17 17 17 17 17 17 17 17 17 17 17 17 17 16 17 17 17 17 17 17 17
22 24 24 23 22 22 22 21 22 22 22 21 21 21 18 17 17 17 16 16 16 16 16 16 17 17 17 16 16 16 16 16 16 16 16 17 17 17 16 16 16 16 17 17 16 17 17 17 17
23 24 23 23 22 22 22 21 22 22 22 21 21 21 18 17 16 16 16 16 16 16 16 16 16 16 16 16 16 16 16 16 16 16 16 16 16 16 16 16 16 16 16 16 16 16 16 16 16
22 24 23 23 22 22 22 21 21 21 21 20 20 21 19 17 16 16 16 16 16 16 16 16 16 16 16 16 16 16 16 16 16 16 16 16 16 16 16 16 16 16 16 16 16 16 16 16 16
21 23 23 23 22 22 22 21 21 20 20 19 19 19 18 17 16 16 16 16 16 16 16 16 16 16 16 16 16 16 16 16 16 16 16 16 15 15 15 16 16 16 16 16 16 16 16 16 16
23 23 22 23 23 22 22 21 21 21 21 20 19 18 17 17 17 17 17 17 16 16 16 16 16 16 16 16 16 16 16 15 15 15 15 15 15 15 15 16 16 16 16 16 16 16 16 16 15
23 22 22 22 22 22 22 21 21 22 21 21 19 18 17 17 17 17 17 17 16 16 16 16 16 16 16 16 16 16 15 15 15 15 15 15 15 15 15 15 15 15 15 15 15 15 15 15 15
22 22 22 22 21 21 21 21 21 21 20 19 19 18 17 17 17 17 17 17 16 16 16 16 16 16 16 16 15 15 15 15 15 15 15 15 15 15 15 15 15 15 15 15 15 15 15 15 15
22 22 21 21 20 20 21 21 20 20 19 18 18 18 17 17 17 17 17 17 16 16 16 16 16 15 15 15 15 15 15 15 15 15 15 15 15 15 15 15 15 15 15 15 15 15 15 15 15
22 21 21 21 21 21 21 21 20 19 18 18 18 18 18 17 17 17 17 16 16 16 16 16 15 15 15 15 15 15 15 15 15 15 15 15 15 15 15 15 15 15 15 15 15 15 14 14 14
21 22 22 21 21 21 21 21 21 19 18 18 18 18 17 17 17 17 17 16 16 16 16 15 15 15 15 15 15 15 15 15 15 14 14 14 14 15 14 14 15 15 15 14 14 14 14 14 14
23 23 22 22 21 21 22 21 21 19 19 19 18 18 17 17 17 17 17 16 16 16 16 15 15 15 15 15 15 15 15 14 14 14 14 14 14 14 14 14 14 14 14 14 14 14 14 14 14
22 22 22 22 22 22 22 21 21 19 19 19 18 18 18 17 17 16 16 16 16 16 16 16 15 15 15 15 15 15 15 14 14 14 14 14 14 14 14 14 14 14 14 14 14 14 14 14 14
22 23 22 22 22 22 22 21 21 19 19 19 19 19 18 18 17 16 16 16 16 16 16 15 15 15 15 14 14 14 14 14 14 14 14 14 14 14 14 14 14 14 14 14 14 14 14 14 14
23 22 22 22 22 21 21 21 21 20 19 19 19 19 18 18 17 16 16 16 16 15 15 15 15 15 15 14 14 14 14 14 14 14 14 14 14 14 14 14 14 14 14 13 13 13 13 13 13
22 22 22 21 21 21 21 21 21 20 20 19 19 19 18 18 17 16 16 15 15 15 15 15 15 14 14 14 14 14 14 14 14 14 14 13 13 13 13 13 13 13 13 13 13 13 13 13 13
22 22 22 21 21 21 21 21 21 21 20 19 18 18 18 17 17 16 16 15 15 15 15 15 15 14 14 14 14 14 14 13 13 13 13 13 13 13 13 13 13 13 13 13 13 13 13 12 12
22 22 21 21 21 21 21 21 22 21 20 19 19 18 17 17 16 16 15 15 15 15 15 14 14 14 14 14 14 14 13 13 13 13 13 13 13 13 13 13 12 12 12 12 12 12 12 12 12
22 21 21 21 21 21 21 21 22 21 21 20 19 18 17 17 16 16 15 15 15 15 14 14 14 14 14 14 13 13 13 13 13 13 13 12 12 12 12 12 12 12 12 12 12 12 12 12 12
21 21 21 21 21 21 21 21 21 22 21 21 20 18 17 16 16 15 15 15 14 14 14 14 14 14 13 13 13 13 13 13 13 12 12 12 12 12 12 12 11 11 11 11 12 11 11 11 11
21 21 21 21 21 21 21 21 21 21 21 21 20 18 17 16 15 15 15 14 14 14 14 14 14 13 13 13 13 13 12 12 12 12 12 12 11 11 11 11 11 11 11 11 11 11 11 11 11
21 22 21 20 21 21 21 21 21 21 19 19 18 18 16 16 15 15 14 14 14 14 14 14 13 13 13 13 13 12 12 12 12 12 12 11 11 11 11 11 11 11 10 10 10 10 10 10 10
21 21 22 21 21 20 21 21 21 20 19 18 18 17 16 16 15 15 14 14 14 14 13 13 13 13 13 12 12 12 12 12 12 11 11 11 11 11 10 10 10 10 10 10 10 10 10 10 10
21 21 21 21 20 20 21 21 21 20 20 19 18 17 16 15 15 14 14 14 14 13 13 13 13 13 12 12 12 12 12 11 11 11 11 11 10 10 10 10 10 10 10 10 10 9 9 9 9
20 20 20 21 20 20 20 21 21 21 20 19 18 17 16 15 15 14 14 13 13 13 13 12 12 12 12 12 12 11 11 11 11 11 11 10 10 10 10 10 9 9 9 9 9 9 9 9 9
20 21 20 20 20 20 20 20 21 20 19 18 18 17 16 15 14 14 14 13 13 13 12 12 12 12 12 12 11 11 11 11 11 10 10 10 10 10 10 9 9 9 9 9 9 9 9 8 8
Wind_Speed
3 2 1 2 2 3 5 4 4 4 4 5 5 4 5 6 4 5 4 3 3 4 4 5 5 5 6 7 7 7 7 8 8 8 8 8 8 8 8 8 8 8 8 8 8 7 6 5 4
2 1 1 1 1 4 5 4 5 5 5 6 5 5 6 6 6 6 4 3 3 4 4 6 6 6 6 7 8 8 8 8 8 8 8 9 8 9 9 9 9 9 9 8 8 8 7 7 5
2 1 1 0 2 3 5 5 6 7 6 4 4 5 4 5 4 4 4 4 4 5 5 7 6 6 7 7 7 8 8 8 8 8 9 9 9 9 10 9 10 10 9 9 9 9 9 8 8
1 1 1 2 6 6 5 6 6 7 5 4 4 6 5 5 3 4 5 5 5 5 5 7 6 7 7 7 7 8 8 9 9 9 9 10 10 10 10 10 10 10 10 10 9 10 10 9 9
1 1 3 5 6 5 5 4 4 4 4 4 4 6 5 4 5 6 6 5 5 5 5 7 7 7 7 7 8 8 8 9 9 9 10 10 10 10 10 10 10 10 10 10 10 10 10 10 10
1 1 3 5 6 5 4 3 4 5 6 5 5 6 5 5 6 6 6 5 5 5 5 7 7 7 8 9 8 8 9 9 10 10 10 10 10 10 10 10 10 10 10 10 11 10 10 10 10
1 2 4 6 6 5 4 3 3 4 5 4 3 5 6 6 6 6 5 5 5 5 5 6 6 8 9 9 10 9 9 10 11 10 10 10 10 10 10 11 11 10 10 10 10 10 10 10 9
1 3 5 5 6 5 4 4 3 2 4 4 2 4 5 6 6 6 6 5 5 5 5 5 6 7 8 9 11 11 11 11 11 11 10 9 9 9 9 10 11 10 10 10 10 10 10 9 9
1 3 4 4 4 5 5 5 4 3 5 4 3 4 6 9 8 7 6 6 5 5 4 4 6 6 7 8 9 9 10 10 8 9 9 6 7 8 8 12 11 11 11 10 10 10 9 7 8
1 3 4 3 3 5 5 4 4 4 5 5 5 6 9 9 8 7 7 6 5 5 4 4 5 5 6 6 6 6 7 7 7 7 7 6 7 8 8 10 10 10 9 9 9 7 5 3 5
3 3 4 4 4 5 5 4 3 4 3 2 5 8 9 9 7 6 6 5 5 5 5 4 5 5 5 5 5 5 5 5 6 7 7 6 6 6 6 6 6 7 6 7 6 4 4 4 5
4 4 3 4 4 4 4 4 3 2 2 3 5 8 9 8 7 6 6 5 5 5 5 4 4 4 5 5 5 4 4 4 5 5 6 5 4 4 5 4 5 5 5 5 5 4 5 5 5
5 4 4 4 5 4 5 4 3 2 3 5 7 9 9 8 7 6 5 5 4 5 5 4 4 4 4 5 4 4 4 4 5 5 5 5 4 4 4 4 4 5 4 4 4 3 4 4 5
5 6 5 4 5 3 4 4 3 2 4 7 7 8 8 7 6 5 5 4 4 4 5 5 4 4 4 4 4 4 4 4 4 4 4 4 4 4 4 4 4 4 4 4 3 4 3 3 4
6 6 5 3 3 3 3 3 3 4 6 6 7 7 6 6 5 5 4 4 4 4 5 5 4 4 4 4 4 4 3 3 3 3 3 4 4 4 4 3 3 3 3 3 3 3 3 3 3
4 4 3 3 2 3 4 3 4 5 6 6 6 5 5 5 4 4 3 3 3 4 5 5 4 4 4 3 3 3 3 3 3 3 3 4 3 3 3 3 3 3 3 3 3 3 2 3 2
4 4 3 3 2 3 4 3 4 5 6 6 5 5 5 5 4 3 3 3 3 3 4 5 4 4 4 4 3 3 4 3 3 3 3 3 4 4 3 3 3 3 3 3 3 3 2 3 3
3 3 3 2 2 4 4 3 4 5 5 6 5 5 5 5 4 4 4 3 4 4 4 4 4 4 4 4 3 3 3 3 3 3 3 4 3 4 3 3 3 3 2 2 3 3 2 2 2
2 3 3 1 1 3 4 4 5 5 6 6 6 6 5 5 4 4 4 4 4 4 4 4 4 4 4 3 3 2 2 2 2 3 4 4 4 4 3 2 3 2 3 3 3 2 2 2 1
4 4 3 2 1 3 4 5 5 6 6 6 6 6 7 6 5 5 4 5 4 4 4 4 4 4 4 3 2 2 2 2 2 2 3 4 4 4 3 2 2 2 2 2 3 2 1 1 1
4 5 4 3 2 4 4 6 6 5 5 5 6 6 6 6 6 6 5 5 5 4 4 3 4 4 3 4 3 3 3 2 2 2 2 3 3 4 3 3 2 2 2 1 2 2 1 0 0
5 3 4 5 6 4 5 5 5 6 6 6 6 6 6 6 6 6 6 6 6 5 5 4 4 4 4 4 3 4 3 2 2 1 2 2 3 3 3 3 3 2 2 2 1 2 1 1 1
3 2 4 6 6 6 6 6 3 5 5 6 6 6 6 7 7 6 6 6 5 5 5 4 4 4 4 4 4 4 3 2 2 2 2 2 2 3 3 3 3 2 2 2 2 2 2 1 1
3 4 4 5 6 7 5 7 4 4 4 4 5 6 6 6 6 5 5 5 5 5 5 5 4 4 4 4 4 4 3 3 3 2 2 1 1 1 2 2 2 2 2 2 2 2 2 1 1
5 6 4 5 5 5 2 5 4 1 2 4 4 4 5 6 5 5 5 5 5 5 5 5 5 5 5 4 4 4 4 3 3 2 2 1 1 1 1 1 1 2 2 2 2 2 2 1 1
6 6 5 4 5 4 4 6 1 2 1 1 2 3 5 6 6 5 5 5 5 5 6 6 6 5 5 4 4 5 4 3 3 3 2 2 1 1 1 0 1 1 1 1 2 1 2 2 2
6 6 5 6 6 6 5 4 3 2 2 1 2 3 4 5 6 5 5 4 4 4 5 6 6 6 5 5 4 4 4 4 3 3 3 2 2 1 1 1 1 0 0 1 1 1 2 2 2
5 4 5 5 5 6 5 6 3 4 3 2 2 3 4 5 5 5 5 4 4 4 4 5 6 6 5 5 4 4 4 4 4 3 3 2 2 2 2 2 2 1 1 0 1 1 1 2 2
5 6 6 5 5 5 5 2 1 0 1 2 3 3 4 4 5 5 5 4 4 4 4 4 5 5 5 4 4 5 5 5 4 3 3 3 3 3 3 3 2 2 1 1 1 1 1 2 2
5 6 7 7 6 7 7 3 3 1 0 1 2 2 3 4 4 4 4 4 4 4 4 4 4 5 5 4 4 5 5 5 5 4 3 3 3 3 3 3 3 2 2 2 2 2 2 2 2
Wind_Direction
166 155 197 232 192 114 94 88 95 105 90 80 80 78 76 54 41 79 92 93 89 91 86 90 67 62 64 72 76 76 76 74 77 77 74 79 86 87 87 82 78 77 80 79 76 72 72 75 78
160 164 218 240 192 129 103 101 96 84 101 108 85 78 79 70 61 87 104 93 94 85 80 77 69 62 68 76 79 80 79 79 80 78 75 76 83 86 85 82 78 74 73 72 72 67 64 65 60
138 244 277 163 105 103 112 107 102 98 103 109 96 69 62 73 81 92 101 117 102 86 79 79 73 66 68 76 80 83 80 77 79 78 74 74 77 79 78 77 76 72 70 68 70 67 66 65 63
194 180 157 116 101 79 97 110 119 123 106 90 112 98 84 64 70 98 116 120 106 95 86 85 75 70 70 77 81 81 83 79 78 77 75 74 76 78 75 73 74 71 70 69 70 69 67 66 67
213 180 139 120 106 98 97 100 130 125 122 113 116 104 94 77 88 108 115 113 105 99 87 87 75 73 74 78 82 83 82 81 77 74 74 74 78 78 75 72 72 71 69 70 70 69 68 66 68
166 184 152 135 123 117 107 107 128 117 115 117 118 110 95 105 112 114 114 113 102 95 88 88 79 74 78 74 78 85 84 82 78 74 71 70 73 75 72 69 70 70 68 67 68 68 70 68 66
149 136 130 134 135 131 113 113 117 122 116 111 122 115 118 125 119 123 118 113 99 92 89 87 86 95 96 82 72 75 79 80 78 74 72 71 71 73 70 68 66 68 68 66 66 67 68 70 71
96 142 134 140 146 131 119 116 94 100 102 98 116 120 129 138 137 133 122 113 102 93 88 86 80 82 92 93 80 74 74 73 75 73 70 74 81 82 75 72 66 66 66 65 63 64 65 69 72
194 157 140 141 149 133 132 127 105 108 114 107 87 76 109 134 143 140 131 121 114 102 95 91 86 82 83 83 87 86 82 73 76 76 71 72 72 72 77 66 65 65 66 65 62 62 65 71 83
147 136 115 110 124 127 131 127 130 142 128 124 114 102 120 138 146 146 140 133 128 118 105 96 91 84 83 81 82 79 77 74 67 68 67 67 69 65 67 79 71 68 69 74 67 66 77 70 82
102 105 113 114 116 126 130 121 130 147 131 131 138 134 137 144 148 147 142 135 130 123 112 102 99 91 86 86 77 75 76 71 65 64 67 66 69 71 63 69 77 72 67 65 71 69 58 64 69
120 102 112 117 119 130 125 128 120 110 65 79 129 140 148 151 151 150 144 141 135 123 116 110 105 102 91 86 83 82 79 75 70 62 61 62 60 57 54 55 53 53 53 53 55 50 55 58 67
120 116 108 113 117 117 115 121 118 102 82 113 128 142 149 150 149 148 146 142 136 135 129 123 122 111 103 96 90 87 77 71 78 68 59 62 61 61 55 55 51 49 48 49 49 49 53 52 57
123 125 123 125 130 138 129 128 135 117 129 134 140 148 150 150 151 150 151 147 147 145 140 137 137 121 110 102 99 91 85 83 77 70 62 63 64 60 59 57 50 49 45 38 42 46 50 51 53
137 134 130 128 142 155 160 137 133 131 148 149 149 148 150 151 155 158 153 154 156 152 150 145 139 135 122 108 98 93 87 87 78 73 67 67 64 61 62 54 54 47 43 37 43 49 47 53 62
166 174 169 143 175 188 213 162 124 137 154 155 154 153 160 161 164 162 158 154 154 155 155 148 150 149 135 120 112 99 85 82 76 73 65 62 62 60 60 54 44 44 48 43 44 38 46 51 50
190 195 182 165 178 193 204 178 147 159 169 169 171 170 172 169 173 170 166 160 159 160 158 155 155 153 142 127 117 105 95 84 75 72 65 56 57 57 62 54 43 47 49 46 43 44 40 48 45
193 202 199 196 174 197 202 199 173 175 188 188 185 184 184 183 181 174 169 163 159 160 157 157 155 157 145 138 128 115 96 88 79 70 62 59 53 53 57 63 54 52 54 49 43 50 50 46 38
220 219 212 195 184 211 225 221 206 199 201 205 200 193 193 190 173 164 163 166 163 158 160 160 166 164 161 155 155 145 131 112 95 79 68 63 56 52 53 52 56 52 59 50 44 46 71 68 47
217 226 220 189 191 231 234 243 223 213 215 218 215 206 199 188 176 168 164 164 170 168 169 168 171 172 172 165 161 154 138 119 96 83 71 60 54 49 48 53 63 65 75 66 55 43 29 73 2
225 242 239 232 214 223 244 239 217 210 215 218 224 219 208 197 188 177 175 173 173 175 175 178 177 171 173 171 160 150 145 147 121 106 87 62 60 56 48 45 44 48 57 56 46 33 16 320 352
238 238 232 224 233 245 245 262 226 209 209 216 219 212 207 197 192 184 180 180 179 181 178 178 175 169 167 169 169 166 163 149 135 121 111 94 70 62 53 47 42 45 43 50 33 20 352 306 302
252 207 218 229 247 257 240 255 230 195 218 217 212 207 202 195 191 186 186 185 183 180 178 178 177 174 174 175 168 178 171 156 142 137 130 111 80 63 55 45 46 45 39 37 29 9 354 326 317
180 185 200 219 239 248 244 246 249 208 233 221 206 201 195 188 185 183 183 179 179 179 178 179 180 180 181 185 181 182 176 166 158 165 154 135 114 82 62 46 51 47 40 39 31 22 8 359 0
214 236 239 228 227 245 219 245 254 199 239 233 220 206 192 183 178 178 176 173 177 182 184 184 184 186 187 190 188 187 190 185 183 185 176 166 145 127 86 51 42 42 37 37 33 28 4 12 7
226 245 258 268 264 265 219 240 212 147 161 237 205 185 176 176 176 176 177 176 180 185 189 191 190 192 192 196 201 198 194 196 195 197 195 190 176 161 165 162 83 43 23 20 23 7 356 352 357
227 234 272 271 268 266 239 229 215 178 166 167 170 173 175 179 177 179 180 180 182 185 192 196 195 195 196 200 204 204 198 194 195 196 193 192 186 172 186 207 179 135 14 354 2 353 350 345 346
249 221 229 248 259 260 250 244 223 184 202 187 191 191 186 184 185 185 184 186 191 190 189 195 200 200 198 199 196 198 196 190 194 192 190 189 189 182 190 206 206 192 198 255 306 314 327 319 335
214 219 233 247 257 264 265 251 90 288 227 216 214 208 197 193 194 191 189 190 192 188 188 192 198 199 196 197 195 196 195 189 190 193 195 198 196 192 199 208 215 214 215 222 238 271 291 296 304
244 240 237 251 250 251 268 266 109 64 327 235 233 205 198 196 194 193 190 191 191 190 192 191 195 198 197 197 196 199 197 189 192 194 198 200 202 203 208 210 215 214 224 238 249 264 267 276 285
Height
1500 1500 1501 1502 1501 1501 1506 1507 1505 1507 1509 1512 1512 1512 1512 1514 1516 1524 1525 1523 1524 1524 1524 1523 1522 1522 1522 1522 1521 1521 1521 1520 1520 1519 1519 1519 1518 1518 1518 1518 1517 1517 1517 1517 1516 1515 1515 1513 1512
1501 1501 1503 1503 1499 1506 1511 1507 1508 1509 1512 1514 1514 1514 1515 1518 1521 1523 1523 1524 1524 1525 1525 1524 1523 1523 1523 1523 1522 1522 1522 1522 1521 1521 1520 1520 1520 1520 1519 1519 1519 1518 1518 1518 1517 1516 1515 1513 1509
1501 1502 1504 1501 1501 1505 1510 1509 1510 1512 1514 1514 1515 1517 1518 1521 1523 1524 1524 1524 1525 1525 1525 1524 1524 1524 1524 1523 1523 1523 1523 1523 1522 1522 1522 1521 1521 1521 1521 1520 1520 1520 1519 1519 1518 1517 1516 1513 1509
1503 1504 1504 1502 1507 1508 1508 1510 1512 1513 1515 1516 1516 1518 1522 1524 1525 1525 1525 1526 1526 1526 1526 1525 1524 1524 1524 1524 1524 1524 1524 1524 1523 1523 1523 1523 1522 1522 1522 1522 1521 1521 1520 1520 1519 1518 1517 1515 1511
1503 1504 1503 1506 1509 1510 1510 1512 1513 1513 1514 1517 1517 1519 1523 1525 1525 1526 1526 1527 1527 1527 1527 1526 1524 1524 1524 1525 1525 1525 1525 1525 1525 1525 1524 1524 1524 1524 1523 1523 1523 1522 1522 1521 1520 1520 1519 1517 1515
1505 1502 1504 1509 1511 1511 1512 1514 1514 1514 1516 1518 1519 1520 1525 1526 1526 1527 1527 1528 1528 1528 1528 1526 1523 1521 1523 1525 1526 1526 1526 1526 1526 1526 1526 1525 1525 1525 1525 1524 1524 1523 1523 1523 1522 1521 1520 1520 1518
1505 1502 1505 1507 1511 1512 1514 1515 1515 1515 1516 1519 1520 1521 1525 1527 1527 1528 1528 1529 1529 1529 1529 1528 1525 1522 1524 1526 1527 1528 1528 1527 1527 1527 1527 1527 1527 1527 1526 1526 1525 1525 1524 1524 1523 1523 1522 1522 1521
1505 1504 1506 1508 1511 1513 1515 1516 1517 1517 1519 1521 1522 1522 1525 1528 1528 1528 1529 1530 1530 1530 1530 1530 1528 1527 1528 1529 1529 1529 1529 1529 1529 1529 1529 1529 1529 1528 1528 1528 1527 1526 1526 1525 1525 1524 1524 1523 1523
1506 1506 1508 1509 1511 1513 1515 1516 1519 1520 1520 1522 1523 1524 1526 1527 1528 1529 1530 1531 1531 1532 1532 1532 1531 1531 1531 1531 1531 1531 1531 1531 1531 1531 1530 1531 1531 1531 1530 1530 1529 1528 1528 1527 1526 1526 1526 1525 1525
1506 1506 1509 1510 1510 1512 1515 1516 1518 1519 1520 1522 1524 1525 1526 1527 1529 1530 1531 1532 1532 1533 1533 1533 1534 1533 1533 1533 1533 1534 1534 1533 1533 1533 1533 1533 1533 1532 1532 1531 1531 1530 1529 1529 1528 1528 1528 1528 1528
1507 1508 1511 1512 1513 1514 1516 1518 1519 1519 1520 1522 1524 1526 1527 1528 1530 1531 1532 1533 1534 1534 1534 1534 1535 1535 1535 1535 1535 1535 1535 1535 1535 1535 1535 1535 1535 1534 1534 1534 1533 1532 1532 1531 1530 1530 1530 1530 1529
1509 1511 1512 1514 1516 1516 1517 1518 1519 1520 1522 1523 1524 1526 1527 1529 1530 1531 1533 1534 1534 1535 1535 1535 1536 1536 1536 1536 1536 1537 1537 1537 1537 1537 1537 1537 1536 1536 1536 1535 1534 1534 1533 1533 1532 1532 1532 1532 1531
1509 1512 1514 1516 1517 1518 1518 1519 1520 1522 1523 1524 1525 1526 1528 1529 1531 1532 1533 1534 1535 1535 1535 1536 1536 1537 1537 1537 1537 1538 1538 1538 1538 1538 1538 1538 1538 1537 1537 1536 1535 1535 1534 1534 1533 1533 1533 1533 1533
1512 1513 1515 1516 1517 1518 1519 1520 1521 1523 1524 1525 1526 1527 1528 1530 1531 1532 1533 1534 1535 1535 1536 1536 1537 1538 1538 1538 1539 1539 1539 1538 1539 1539 1539 1539 1539 1539 1538 1537 1536 1536 1535 1535 1534 1534 1533 1533 1533
1513 1513 1515 1516 1517 1518 1519 1519 1521 1523 1524 1525 1526 1528 1529 1530 1531 1532 1533 1534 1535 1536 1536 1537 1537 1538 1539 1539 1539 1539 1539 1539 1539 1539 1540 1540 1539 1539 1538 1538 1537 1537 1536 1536 1535 1535 1534 1534 1534
1511 1511 1514 1516 1516 1518 1519 1520 1521 1523 1524 1525 1526 1527 1529 1530 1531 1532 1533 1534 1535 1535 1536 1537 1537 1538 1539 1539 1539 1539 1540 1540 1540 1540 1540 1540 1540 1539 1539 1538 1538 1537 1537 1536 1535 1535 1535 1534 1534
1510 1512 1514 1515 1516 1516 1516 1518 1520 1523 1524 1524 1525 1527 1528 1529 1531 1532 1533 1533 1534 1535 1536 1537 1537 1538 1538 1539 1539 1539 1540 1540 1540 1540 1540 1540 1540 1540 1539 1538 1538 1538 1537 1536 1536 1535 1535 1535 1534
1512 1510 1512 1513 1514 1515 1515 1516 1518 1522 1523 1523 1524 1525 1527 1528 1530 1531 1532 1533 1534 1535 1536 1536 1537 1538 1538 1539 1539 1539 1540 1540 1540 1540 1540 1540 1540 1540 1539 1538 1538 1538 1537 1537 1536 1536 1535 1535 1535
1507 1509 1511 1512 1513 1515 1514 1515 1516 1519 1521 1522 1522 1523 1525 1527 1529 1530 1531 1532 1533 1534 1535 1536 1536 1537 1538 1538 1539 1539 1540 1540 1540 1540 1540 1540 1540 1539 1539 1538 1538 1537 1537 1536 1536 1536 1535 1535 1535
1508 1510 1511 1513 1514 1514 1514 1514 1514 1516 1518 1520 1520 1522 1523 1525 1527 1528 1530 1530 1532 1533 1534 1535 1536 1537 1537 1538 1539 1539 1539 1539 1539 1539 1539 1539 1539 1539 1539 1538 1538 1537 1536 1536 1535 1535 1535 1534 1534
1508 1509 1510 1512 1514 1513 1514 1514 1511 1513 1516 1518 1519 1520 1522 1524 1525 1527 1528 1529 1530 1531 1532 1533 1534 1535 1536 1537 1538 1538 1538 1539 1539 1539 1539 1539 1539 1538 1538 1538 1537 1536 1536 1536 1535 1534 1534 1534 1534
1509 1508 1509 1512 1513 1512 1513 1514 1507 1508 1512 1514 1516 1518 1519 1521 1523 1525 1526 1527 1529 1530 1531 1532 1533 1534 1535 1535 1536 1537 1537 1538 1538 1538 1538 1538 1538 1538 1537 1537 1537 1536 1536 1535 1534 1534 1533 1533 1533
1506 1508 1508 1509 1510 1510 1510 1511 1505 1506 1508 1509 1513 1515 1517 1519 1521 1523 1524 1525 1527 1528 1529 1531 1532 1533 1533 1534 1535 1536 1537 1537 1537 1537 1537 1537 1537 1537 1536 1536 1536 1536 1535 1534 1533 1533 1532 1532 1532
1507 1509 1509 1508 1508 1514 1508 1509 1507 1502 1504 1506 1510 1513 1515 1517 1519 1521 1522 1524 1525 1526 1527 1529 1530 1531 1531 1532 1533 1534 1535 1535 1536 1536 1536 1536 1536 1536 1536 1535 1535 1535 1534 1533 1532 1532 1531 1531 1531
1506 1508 1513 1514 1513 1510 1506 1508 1505 1500 1502 1504 1507 1510 1513 1515 1517 1519 1520 1521 1523 1524 1525 1527 1528 1529 1530 1531 1532 1533 1533 1534 1534 1535 1535 1535 1535 1535 1534 1534 1534 1534 1533 1532 1532 1531 1530 1530 1530
1504 1504 1512 1518 1513 1506 1506 1506 1500 1501 1504 1506 1507 1509 1511 1513 1515 1517 1518 1519 1520 1522 1523 1525 1526 1527 1528 1529 1530 1531 1531 1532 1533 1533 1533 1534 1534 1533 1533 1533 1533 1532 1532 1531 1531 1530 1530 1529 1529
1503 1503 1502 1506 1506 1509 1502 1500 1499 1501 1503 1505 1507 1508 1510 1512 1513 1515 1517 1518 1519 1520 1521 1522 1523 1525 1526 1527 1528 1529 1529 1530 1530 1531 1531 1532 1532 1531 1532 1532 1531 1531 1530 1530 1530 1529 1529 1528 1528
1502 1501 1505 1507 1513 1511 1504 1499 1497 1499 1500 1503 1505 1507 1509 1510 1512 1514 1515 1516 1517 1518 1519 1520 1521 1522 1523 1524 1525 1526 1527 1527 1528 1528 1529 1529 1529 1529 1530 1530 1530 1529 1529 1529 1528 1528 1527 1527 1526
1503 1504 1503 1503 1504 1509 1508 1500 1492 1495 1498 1500 1503 1505 1507 1509 1510 1512 1513 1514 1515 1516 1516 1517 1518 1520 1521 1522 1522 1523 1524 1525 1525 1526 1526 1527 1527 1527 1528 1528 1528 1528 1527 1527 1527 1526 1526 1526 1525
1501 1500 1501 1506 1504 1503 1504 1502 1493 1496 1498 1500 1502 1504 1506 1507 1509 1510 1511 1512 1513 1514 1514 1515 1516 1517 1518 1519 1520 1521 1521 1522 1523 1523 1524 1524 1525 1525 1526 1526 1526 1526 1526 1526 1525 1525 1524 1524 1524